Regional Weather Roundup
Issued by NWS

Home | Current Version | Previous Version | Graphics & Text | Print | Product List | Glossary On
Versions: 1 2 3 4 5 6 7 8 9 10 11 12 13 14 15 16 17 18 19 20 21 22 23 24 25 26 27 28 29 30 31 32 33 34 35 36 37 38 39 40 41 42 43 44 45 46 47 48 49 50
000
ASUS43 KMKX 260700
RWRWI

WISCONSIN REGIONAL WEATHER ROUNDUP
NATIONAL WEATHER SERVICE MILWAUKEE/SULLIVAN WI
200 AM CDT THU APR 26 2018

NOTE: "FAIR" INDICATES FEW OR NO CLOUDS BELOW 12,000 FEET WITH NO
SIGNIFICANT WEATHER AND/OR OBSTRUCTIONS TO VISIBILITY.

WIZ001-002-006>008-014>016-023>028-260800-
NORTHWEST WISCONSIN

CITY           SKY/WX    TMP DP  RH WIND       PRES   REMARKS
SUPERIOR ARPT  FAIR      31  28  88 CALM      29.88F
ASHLAND        FAIR      37  24  59 SW6       29.89F WCI  32
HAYWARD        FAIR      32  24  72 CALM      29.90F
SIREN          FAIR      34  25  69 CALM      29.91F
CUMBERLAND     FAIR      34  27  75 CALM      29.92F
RICE LAKE      FAIR      33  30  88 CALM      29.93F
CHETEK         FAIR      32  27  82 CALM      29.92F
LADYSMITH      FAIR      33  28  81 CALM      29.93F
EAU CLAIRE     NOT AVBL
MENOMONIE      FAIR      38  29  72 CALM      29.93F
NEW RICHMOND   FAIR      36  29  75 CALM      29.93S
OSCEOLA        FAIR      38  31  76 CALM      29.95F
$$

WIZ003>005-009-010-017-018-260800-
NORTH CENTRAL WISCONSIN

CITY           SKY/WX    TMP DP  RH WIND       PRES   REMARKS
MANITOWISH WTR FAIR      27  24  90 CALM      29.90F
ARBOR VITAE    FAIR      32  25  74 CALM      29.91F
WOODRUFF       FAIR      32  25  74 CALM      29.91F
RHINELANDER    FAIR      30  22  72 CALM      29.91F
EAGLE RIVER    FAIR      27  22  81 CALM      29.90F
LAND O LAKES   FAIR      26  22  86 CALM      29.92F
PHILLIPS       FAIR      29  26  90 CALM      29.91F
TOMAHAWK       FAIR      27  24  85 CALM      29.93F
MEDFORD        FAIR      33  28  82 CALM      29.92F
MERRILL        FAIR      29  25  83 CALM      29.93F
$$

WIZ029-030-035-036-043>047-260800-
CENTRAL WISCONSIN

CITY           SKY/WX    TMP DP  RH WIND       PRES   REMARKS
WAUSAU         FAIR      34  27  75 CALM      29.91F
MOSINEE        FAIR      36  27  69 CALM      29.94F
MARSHFIELD     FAIR      40  29  64 CALM      29.92F
STEVENS POINT  FAIR      29  27  92 CALM      29.95F
WAUPACA        FAIR      38  30  72 CALM      29.95S
WAUTOMA        NOT AVBL
WISC RAPIDS    FAIR      31  27  85 CALM      29.94F
CAMP DOUGLAS   FAIR      30  28  92 CALM      29.94F
$$

WIZ011>013-019>022-031-037>040-048>050-260800-
NORTHEAST WISCONSIN

CITY           SKY/WX    TMP DP  RH WIND       PRES   REMARKS
ANTIGO         FAIR      31  30  96 CALM      29.93F
SHAWANO        FAIR      36  32  86 CALM      29.94S
OCONTO         FAIR      29  27  92 CALM      29.94F
STURGEON BAY   FAIR      36  27  69 S6        29.95F WCI  31
GREEN BAY      FAIR      37  31  78 S5        29.95F WCI  33
MANITOWOC      FAIR      34  28  79 SW3       29.96F
APPLETON       FAIR      36  30  80 S5        29.93F WCI  32
CLINTONVILLE   FAIR      37  29  72 CALM      29.94S
OSHKOSH        FAIR      39  32  76 SW7       29.94F WCI  34
$$

WIZ032>034-041-042-053>061-260800-
SOUTHWEST WISCONSIN

CITY           SKY/WX    TMP DP  RH WIND       PRES   REMARKS
LA CROSSE      FAIR      43  33  68 SE3       29.95S
SPARTA         FAIR      30  26  88 CALM      29.95F
VIROQUA        FAIR      44  28  55 CALM      29.95S
BOSCOBEL       FAIR      35  30  82 CALM      29.96F
PRAIRIE DU CHI FAIR      38  28  66 E3        29.96F
PLATTEVILLE    FAIR      43  30  60 E8        29.97S
$$

WIZ056-057-062-063-064-067-068-260800-
SOUTH CENTRAL WISCONSIN

CITY           SKY/WX    TMP DP  RH WIND       PRES   REMARKS
REEDSBURG      FAIR      37  33  87 CALM      29.95F
BARABOO/DELLS  FAIR      38  27  66 S6        29.95F WCI  33
LONE ROCK      NOT AVBL
MINERAL POINT  FAIR      39  32  75 SE9       29.96F WCI  33
MADISON        FAIR      41  31  67 S8        29.97F
MIDDLETON      FAIR      42  32  69 S7        29.98F
WATERTOWN      FAIR      35  31  84 CALM      29.97F
MONROE         FAIR      36  32  87 S9        29.98S WCI  29
JANESVILLE     FAIR      36  30  80 CALM      29.99S
$$

WIZ051-052-058>065-066-070>072-260800-
SOUTHEAST WISCONSIN

CITY           SKY/WX    TMP DP  RH WIND       PRES   REMARKS
MILWAUKEE      FAIR      38  28  67 CALM      29.97F
WAUKESHA       FAIR      32  28  86 S3        29.98S
MILWAUKEE/TIMM FAIR      34  27  75 CALM      29.98S
RACINE         FAIR      34  29  82 W7        29.99F WCI  28
BURLINGTON     FAIR      30  27  90 CALM      29.97F
KENOSHA        FAIR      33  27  78 W3        29.97F
FOND DU LAC    FAIR      37  30  75 S5        29.95F WCI  33
SHEBOYGAN      FAIR      33  28  81 SW5       29.95F HAZE    WCI  29
WEST BEND      FAIR      32  32 100 CALM      29.97S
JUNEAU         FAIR      35  30  82 CALM      29.97F
$$

LSZ147-162-260800-
LAKE SUPERIOR

STATION/POSITION TIME  TEMP    WIND        PRES    WAVE
                       AIR SEA DIR/SP/G            HT/PER
                 (UTC) (F)     (DEG/KT/KT) (MB)    (FT/S)
DEVILS ISLAND    0600   43     220/  4/  4 1012.3F
SAXON HARBOR     0640   35     190/  4/  5 1011.5F
$$

LMZ867-665-643>646-260800-
LAKE MICHIGAN

STATION/POSITION TIME  TEMP    WIND        PRES    WAVE
                       AIR SEA DIR/SP/G            HT/PER
                 (UTC) (F)     (DEG/KT/KT) (MB)    (FT/S)
NORTHPORT PIER   0640   32                 1014.6S
KEWAUNEE LAKESHO 0630   36     280/  4/  5 1013.8F
SHEBOYGAN LAKESH 0600   39     230/  7/  8 1015.2F
PORT WASHINGTON  0630   36     260/  5/  6 1015.9S
MILWAUKEE LAKESH 0640   41     240/  6/  6   N/A
KENOSHA   LAKESH 0600   38                 1015.2
$$

TC  - TEMPERATURE IN CELSIUS
VSB - VISIBILITY IN STATUTE MILES
WCI - WIND CHILL INDEX
HX  - HEAT INDEX





USA.gov is the U.S. government's official web portal to all federal, state and local government web resources and services.